Погода в Киреевске

Россия / Томская область     56°22′03″N   84°05′27″E
темп.,
°C
ветер,
м/с
пор.,
м/с
влажн.,
%
обл.,
%
осадки,
мм/ч
давл.,
гПа
погр.,
м
18 июня, пт
пт1801:00+16ю229442 0.3 100536
04:00+15ююз249787 0.4 100471
07:00+17юз31096100 0.4 1004353
10:00+19юз358593 0.0 1004433
13:00+26зюз465627 0.0 10031373
16:00+28юз26515 0.0 10011287
19:00+28юз36605 0.0 1000966
22:00+21ю39810 0.0 999172
19 июня, сб
сб1901:00+19ю31188100 0.0 999247
04:00+17ю2394100 0.0 99855
07:00+18ююз3784100 0.0 998233
10:00+19ю1389100 0.6 998142
13:00+24юз466477 0.6 9981253
16:00+16з688682 0.9 1000677
19:00+14зсз587149 0.9 1002867
22:00+10зсз587161 0.0 1004555
20 июня, вс
вс2001:00+7з387697 0.0 1005305
04:00+5зюз2479100 0.0 100695
07:00+9з356899 0.0 1006529
10:00+12зюз475894 0.0 10071370
13:00+14зюз474697 0.0 10072011
16:00+14юз47497 0.0 10081523
19:00+14ююз696668 0.1 10081291
22:00+10ю410845 0.2 1009335
21 июня, пн
пн2101:00+9ю4119184 0.2 1009270
04:00+8ююв412835 0.0 1008315
07:00+11ююв513709 0.0 1007455
10:00+17ююв71149100 0.0 1005934
13:00+20юв8114174 0.0 10032046
16:00+20юв81346100 0.0 10012296
19:00+13юв51386100 0.3 1002996
22:00+12юв61395100 3.0 1000734
22 июня, вт
вт2201:00+12ююв51194100 3.0 999556
04:00+11ююз51096100 0.8 999741
07:00+9ююв61191100 0.8 1000965
10:00+9ю61191100 0.1 10011021
13:00+9ю61092100 0.4 1003913
16:00+8ю5994100 0.9 10051103
19:00+8ю5992100 1.1 1006995
22:00+7ю4895100 0.3 10071083